index,time,SiteAddr,SiteName,app,area,date,device_id,gps_alt,gps_fix,gps_lat,gps_lon,gps_num,name,s_d0,s_d1,s_d2,s_h0,s_t0,timestamp
0,12:31:49,高雄市兆湘國小 高雄市岡山區介壽路60號,高雄市市立兆湘國小(2018),AirBox,NA,2024-03-22,74DA38F20C6A,2.0,1.0,22.784,120.286,9.0,js02,9.0,10.0,6.0,100.0,25.5,2024-03-22T12:31:49Z
1,12:37:55,高雄市兆湘國小 高雄市岡山區介壽路60號,高雄市市立兆湘國小(2018),AirBox,NA,2024-03-22,74DA38F20C6A,2.0,1.0,22.784,120.286,9.0,js02,9.0,10.0,5.0,100.0,25.5,2024-03-22T12:37:55Z
2,12:44:02,高雄市兆湘國小 高雄市岡山區介壽路60號,高雄市市立兆湘國小(2018),AirBox,NA,2024-03-22,74DA38F20C6A,2.0,1.0,22.784,120.286,9.0,js02,9.0,10.0,5.0,100.0,25.37,2024-03-22T12:44:02Z
3,12:50:08,高雄市兆湘國小 高雄市岡山區介壽路60號,高雄市市立兆湘國小(2018),AirBox,NA,2024-03-22,74DA38F20C6A,2.0,1.0,22.784,120.286,9.0,js02,8.0,10.0,5.0,100.0,25.5,2024-03-22T12:50:08Z
4,12:56:14,高雄市兆湘國小 高雄市岡山區介壽路60號,高雄市市立兆湘國小(2018),AirBox,NA,2024-03-22,74DA38F20C6A,2.0,1.0,22.784,120.286,9.0,js02,9.0,10.0,5.0,100.0,25.5,2024-03-22T12:56:14Z
5,13:02:20,高雄市兆湘國小 高雄市岡山區介壽路60號,高雄市市立兆湘國小(2018),AirBox,NA,2024-03-22,74DA38F20C6A,2.0,1.0,22.784,120.286,9.0,js02,7.0,9.0,5.0,100.0,25.37,2024-03-22T13:02:20Z
6,13:08:25,高雄市兆湘國小 高雄市岡山區介壽路60號,高雄市市立兆湘國小(2018),AirBox,NA,2024-03-22,74DA38F20C6A,2.0,1.0,22.784,120.286,9.0,js02,7.0,8.0,5.0,100.0,25.37,2024-03-22T13:08:25Z
7,13:14:30,高雄市兆湘國小 高雄市岡山區介壽路60號,高雄市市立兆湘國小(2018),AirBox,NA,2024-03-22,74DA38F20C6A,2.0,1.0,22.784,120.286,9.0,js02,8.0,9.0,5.0,100.0,25.37,2024-03-22T13:14:30Z
8,13:20:37,高雄市兆湘國小 高雄市岡山區介壽路60號,高雄市市立兆湘國小(2018),AirBox,NA,2024-03-22,74DA38F20C6A,2.0,1.0,22.784,120.286,9.0,js02,8.0,10.0,5.0,100.0,25.62,2024-03-22T13:20:37Z
9,13:26:42,高雄市兆湘國小 高雄市岡山區介壽路60號,高雄市市立兆湘國小(2018),AirBox,NA,2024-03-22,74DA38F20C6A,2.0,1.0,22.784,120.286,9.0,js02,8.0,10.0,5.0,100.0,25.62,2024-03-22T13:26:42Z
10,13:32:48,高雄市兆湘國小 高雄市岡山區介壽路60號,高雄市市立兆湘國小(2018),AirBox,NA,2024-03-22,74DA38F20C6A,2.0,1.0,22.784,120.286,9.0,js02,10.0,11.0,6.0,100.0,25.87,2024-03-22T13:32:48Z
11,13:38:53,高雄市兆湘國小 高雄市岡山區介壽路60號,高雄市市立兆湘國小(2018),AirBox,NA,2024-03-22,74DA38F20C6A,2.0,1.0,22.784,120.286,9.0,js02,11.0,13.0,7.0,100.0,25.75,2024-03-22T13:38:53Z
12,13:44:58,高雄市兆湘國小 高雄市岡山區介壽路60號,高雄市市立兆湘國小(2018),AirBox,NA,2024-03-22,74DA38F20C6A,2.0,1.0,22.784,120.286,9.0,js02,12.0,14.0,8.0,100.0,25.87,2024-03-22T13:44:58Z
13,13:51:04,高雄市兆湘國小 高雄市岡山區介壽路60號,高雄市市立兆湘國小(2018),AirBox,NA,2024-03-22,74DA38F20C6A,2.0,1.0,22.784,120.286,9.0,js02,11.0,13.0,7.0,100.0,25.75,2024-03-22T13:51:04Z
14,13:57:10,高雄市兆湘國小 高雄市岡山區介壽路60號,高雄市市立兆湘國小(2018),AirBox,NA,2024-03-22,74DA38F20C6A,2.0,1.0,22.784,120.286,9.0,js02,11.0,12.0,7.0,100.0,25.75,2024-03-22T13:57:10Z
15,14:03:17,高雄市兆湘國小 高雄市岡山區介壽路60號,高雄市市立兆湘國小(2018),AirBox,NA,2024-03-22,74DA38F20C6A,2.0,1.0,22.784,120.286,9.0,js02,11.0,13.0,8.0,100.0,25.75,2024-03-22T14:03:17Z
16,14:09:24,高雄市兆湘國小 高雄市岡山區介壽路60號,高雄市市立兆湘國小(2018),AirBox,NA,2024-03-22,74DA38F20C6A,2.0,1.0,22.784,120.286,9.0,js02,12.0,13.0,8.0,100.0,25.75,2024-03-22T14:09:24Z
17,14:15:30,高雄市兆湘國小 高雄市岡山區介壽路60號,高雄市市立兆湘國小(2018),AirBox,NA,2024-03-22,74DA38F20C6A,2.0,1.0,22.784,120.286,9.0,js02,12.0,13.0,7.0,100.0,25.87,2024-03-22T14:15:30Z
18,14:21:37,高雄市兆湘國小 高雄市岡山區介壽路60號,高雄市市立兆湘國小(2018),AirBox,NA,2024-03-22,74DA38F20C6A,2.0,1.0,22.784,120.286,9.0,js02,11.0,12.0,7.0,100.0,25.87,2024-03-22T14:21:37Z
19,14:27:45,高雄市兆湘國小 高雄市岡山區介壽路60號,高雄市市立兆湘國小(2018),AirBox,NA,2024-03-22,74DA38F20C6A,2.0,1.0,22.784,120.286,9.0,js02,12.0,14.0,8.0,100.0,25.87,2024-03-22T14:27:45Z
20,14:33:51,高雄市兆湘國小 高雄市岡山區介壽路60號,高雄市市立兆湘國小(2018),AirBox,NA,2024-03-22,74DA38F20C6A,2.0,1.0,22.784,120.286,9.0,js02,12.0,13.0,7.0,100.0,25.87,2024-03-22T14:33:51Z
21,14:39:57,高雄市兆湘國小 高雄市岡山區介壽路60號,高雄市市立兆湘國小(2018),AirBox,NA,2024-03-22,74DA38F20C6A,2.0,1.0,22.784,120.286,9.0,js02,11.0,12.0,7.0,100.0,25.75,2024-03-22T14:39:57Z
22,14:46:03,高雄市兆湘國小 高雄市岡山區介壽路60號,高雄市市立兆湘國小(2018),AirBox,NA,2024-03-22,74DA38F20C6A,2.0,1.0,22.784,120.286,9.0,js02,10.0,11.0,7.0,100.0,25.75,2024-03-22T14:46:03Z
23,14:52:08,高雄市兆湘國小 高雄市岡山區介壽路60號,高雄市市立兆湘國小(2018),AirBox,NA,2024-03-22,74DA38F20C6A,2.0,1.0,22.784,120.286,9.0,js02,11.0,12.0,7.0,100.0,25.75,2024-03-22T14:52:08Z
24,14:58:13,高雄市兆湘國小 高雄市岡山區介壽路60號,高雄市市立兆湘國小(2018),AirBox,NA,2024-03-22,74DA38F20C6A,2.0,1.0,22.784,120.286,9.0,js02,11.0,13.0,7.0,100.0,25.75,2024-03-22T14:58:13Z
25,15:04:19,高雄市兆湘國小 高雄市岡山區介壽路60號,高雄市市立兆湘國小(2018),AirBox,NA,2024-03-22,74DA38F20C6A,2.0,1.0,22.784,120.286,9.0,js02,11.0,12.0,7.0,100.0,25.75,2024-03-22T15:04:19Z
26,15:10:26,高雄市兆湘國小 高雄市岡山區介壽路60號,高雄市市立兆湘國小(2018),AirBox,NA,2024-03-22,74DA38F20C6A,2.0,1.0,22.784,120.286,9.0,js02,12.0,13.0,7.0,100.0,25.5,2024-03-22T15:10:26Z
27,15:16:32,高雄市兆湘國小 高雄市岡山區介壽路60號,高雄市市立兆湘國小(2018),AirBox,NA,2024-03-22,74DA38F20C6A,2.0,1.0,22.784,120.286,9.0,js02,12.0,13.0,8.0,100.0,25.37,2024-03-22T15:16:32Z
28,15:22:38,高雄市兆湘國小 高雄市岡山區介壽路60號,高雄市市立兆湘國小(2018),AirBox,NA,2024-03-22,74DA38F20C6A,2.0,1.0,22.784,120.286,9.0,js02,11.0,12.0,7.0,100.0,25.37,2024-03-22T15:22:38Z
29,15:28:43,高雄市兆湘國小 高雄市岡山區介壽路60號,高雄市市立兆湘國小(2018),AirBox,NA,2024-03-22,74DA38F20C6A,2.0,1.0,22.784,120.286,9.0,js02,11.0,12.0,7.0,100.0,25.12,2024-03-22T15:28:43Z
30,15:34:53,高雄市兆湘國小 高雄市岡山區介壽路60號,高雄市市立兆湘國小(2018),AirBox,NA,2024-03-22,74DA38F20C6A,2.0,1.0,22.784,120.286,9.0,js02,13.0,15.0,8.0,100.0,25.12,2024-03-22T15:34:53Z
31,15:41:01,高雄市兆湘國小 高雄市岡山區介壽路60號,高雄市市立兆湘國小(2018),AirBox,NA,2024-03-22,74DA38F20C6A,2.0,1.0,22.784,120.286,9.0,js02,12.0,13.0,8.0,100.0,25.0,2024-03-22T15:41:01Z
32,15:47:08,高雄市兆湘國小 高雄市岡山區介壽路60號,高雄市市立兆湘國小(2018),AirBox,NA,2024-03-22,74DA38F20C6A,2.0,1.0,22.784,120.286,9.0,js02,12.0,13.0,8.0,100.0,24.87,2024-03-22T15:47:08Z
33,15:53:15,高雄市兆湘國小 高雄市岡山區介壽路60號,高雄市市立兆湘國小(2018),AirBox,NA,2024-03-22,74DA38F20C6A,2.0,1.0,22.784,120.286,9.0,js02,12.0,14.0,8.0,100.0,24.75,2024-03-22T15:53:15Z
34,15:59:21,高雄市兆湘國小 高雄市岡山區介壽路60號,高雄市市立兆湘國小(2018),AirBox,NA,2024-03-22,74DA38F20C6A,2.0,1.0,22.784,120.286,9.0,js02,13.0,15.0,8.0,100.0,24.75,2024-03-22T15:59:21Z
35,16:05:26,高雄市兆湘國小 高雄市岡山區介壽路60號,高雄市市立兆湘國小(2018),AirBox,NA,2024-03-22,74DA38F20C6A,2.0,1.0,22.784,120.286,9.0,js02,13.0,14.0,8.0,100.0,24.62,2024-03-22T16:05:26Z
36,16:11:32,高雄市兆湘國小 高雄市岡山區介壽路60號,高雄市市立兆湘國小(2018),AirBox,NA,2024-03-22,74DA38F20C6A,2.0,1.0,22.784,120.286,9.0,js02,12.0,14.0,8.0,100.0,24.62,2024-03-22T16:11:32Z
37,16:17:39,高雄市兆湘國小 高雄市岡山區介壽路60號,高雄市市立兆湘國小(2018),AirBox,NA,2024-03-22,74DA38F20C6A,2.0,1.0,22.784,120.286,9.0,js02,13.0,14.0,9.0,100.0,24.62,2024-03-22T16:17:39Z
38,16:23:45,高雄市兆湘國小 高雄市岡山區介壽路60號,高雄市市立兆湘國小(2018),AirBox,NA,2024-03-22,74DA38F20C6A,2.0,1.0,22.784,120.286,9.0,js02,13.0,14.0,9.0,100.0,24.75,2024-03-22T16:23:45Z
39,16:29:51,高雄市兆湘國小 高雄市岡山區介壽路60號,高雄市市立兆湘國小(2018),AirBox,NA,2024-03-22,74DA38F20C6A,2.0,1.0,22.784,120.286,9.0,js02,13.0,14.0,9.0,100.0,24.62,2024-03-22T16:29:51Z
40,16:35:57,高雄市兆湘國小 高雄市岡山區介壽路60號,高雄市市立兆湘國小(2018),AirBox,NA,2024-03-22,74DA38F20C6A,2.0,1.0,22.784,120.286,9.0,js02,14.0,15.0,9.0,100.0,24.5,2024-03-22T16:35:57Z
41,16:42:03,高雄市兆湘國小 高雄市岡山區介壽路60號,高雄市市立兆湘國小(2018),AirBox,NA,2024-03-22,74DA38F20C6A,2.0,1.0,22.784,120.286,9.0,js02,13.0,14.0,9.0,100.0,24.37,2024-03-22T16:42:03Z
42,16:48:09,高雄市兆湘國小 高雄市岡山區介壽路60號,高雄市市立兆湘國小(2018),AirBox,NA,2024-03-22,74DA38F20C6A,2.0,1.0,22.784,120.286,9.0,js02,13.0,15.0,9.0,100.0,24.37,2024-03-22T16:48:09Z
43,16:54:15,高雄市兆湘國小 高雄市岡山區介壽路60號,高雄市市立兆湘國小(2018),AirBox,NA,2024-03-22,74DA38F20C6A,2.0,1.0,22.784,120.286,9.0,js02,13.0,15.0,9.0,100.0,24.25,2024-03-22T16:54:15Z
44,17:00:20,高雄市兆湘國小 高雄市岡山區介壽路60號,高雄市市立兆湘國小(2018),AirBox,NA,2024-03-22,74DA38F20C6A,2.0,1.0,22.784,120.286,9.0,js02,14.0,16.0,9.0,100.0,24.37,2024-03-22T17:00:20Z
45,17:06:28,高雄市兆湘國小 高雄市岡山區介壽路60號,高雄市市立兆湘國小(2018),AirBox,NA,2024-03-22,74DA38F20C6A,2.0,1.0,22.784,120.286,9.0,js02,16.0,17.0,10.0,100.0,24.37,2024-03-22T17:06:28Z
46,17:12:34,高雄市兆湘國小 高雄市岡山區介壽路60號,高雄市市立兆湘國小(2018),AirBox,NA,2024-03-22,74DA38F20C6A,2.0,1.0,22.784,120.286,9.0,js02,14.0,15.0,9.0,100.0,24.37,2024-03-22T17:12:34Z
47,17:18:40,高雄市兆湘國小 高雄市岡山區介壽路60號,高雄市市立兆湘國小(2018),AirBox,NA,2024-03-22,74DA38F20C6A,2.0,1.0,22.784,120.286,9.0,js02,15.0,17.0,10.0,100.0,24.37,2024-03-22T17:18:40Z
48,17:24:48,高雄市兆湘國小 高雄市岡山區介壽路60號,高雄市市立兆湘國小(2018),AirBox,NA,2024-03-22,74DA38F20C6A,2.0,1.0,22.784,120.286,9.0,js02,16.0,18.0,10.0,100.0,24.5,2024-03-22T17:24:48Z
49,17:30:55,高雄市兆湘國小 高雄市岡山區介壽路60號,高雄市市立兆湘國小(2018),AirBox,NA,2024-03-22,74DA38F20C6A,2.0,1.0,22.784,120.286,9.0,js02,16.0,17.0,10.0,100.0,24.5,2024-03-22T17:30:55Z
50,17:37:02,高雄市兆湘國小 高雄市岡山區介壽路60號,高雄市市立兆湘國小(2018),AirBox,NA,2024-03-22,74DA38F20C6A,2.0,1.0,22.784,120.286,9.0,js02,16.0,19.0,11.0,100.0,24.37,2024-03-22T17:37:02Z
51,17:43:10,高雄市兆湘國小 高雄市岡山區介壽路60號,高雄市市立兆湘國小(2018),AirBox,NA,2024-03-22,74DA38F20C6A,2.0,1.0,22.784,120.286,9.0,js02,16.0,18.0,10.0,100.0,24.37,2024-03-22T17:43:10Z
52,17:49:16,高雄市兆湘國小 高雄市岡山區介壽路60號,高雄市市立兆湘國小(2018),AirBox,NA,2024-03-22,74DA38F20C6A,2.0,1.0,22.784,120.286,9.0,js02,16.0,17.0,10.0,100.0,24.5,2024-03-22T17:49:16Z
53,17:55:22,高雄市兆湘國小 高雄市岡山區介壽路60號,高雄市市立兆湘國小(2018),AirBox,NA,2024-03-22,74DA38F20C6A,2.0,1.0,22.784,120.286,9.0,js02,15.0,16.0,10.0,100.0,24.37,2024-03-22T17:55:22Z
54,18:01:28,高雄市兆湘國小 高雄市岡山區介壽路60號,高雄市市立兆湘國小(2018),AirBox,NA,2024-03-22,74DA38F20C6A,2.0,1.0,22.784,120.286,9.0,js02,16.0,17.0,10.0,100.0,24.5,2024-03-22T18:01:28Z
55,18:07:35,高雄市兆湘國小 高雄市岡山區介壽路60號,高雄市市立兆湘國小(2018),AirBox,NA,2024-03-22,74DA38F20C6A,2.0,1.0,22.784,120.286,9.0,js02,16.0,17.0,10.0,100.0,24.62,2024-03-22T18:07:35Z
56,18:13:44,高雄市兆湘國小 高雄市岡山區介壽路60號,高雄市市立兆湘國小(2018),AirBox,NA,2024-03-22,74DA38F20C6A,2.0,1.0,22.784,120.286,9.0,js02,17.0,18.0,10.0,100.0,24.37,2024-03-22T18:13:44Z
57,18:19:51,高雄市兆湘國小 高雄市岡山區介壽路60號,高雄市市立兆湘國小(2018),AirBox,NA,2024-03-22,74DA38F20C6A,2.0,1.0,22.784,120.286,9.0,js02,16.0,17.0,10.0,100.0,24.12,2024-03-22T18:19:51Z
58,18:25:58,高雄市兆湘國小 高雄市岡山區介壽路60號,高雄市市立兆湘國小(2018),AirBox,NA,2024-03-22,74DA38F20C6A,2.0,1.0,22.784,120.286,9.0,js02,16.0,18.0,10.0,100.0,23.87,2024-03-22T18:25:58Z
59,18:32:06,高雄市兆湘國小 高雄市岡山區介壽路60號,高雄市市立兆湘國小(2018),AirBox,NA,2024-03-22,74DA38F20C6A,2.0,1.0,22.784,120.286,9.0,js02,16.0,18.0,10.0,100.0,23.87,2024-03-22T18:32:06Z
60,18:38:12,高雄市兆湘國小 高雄市岡山區介壽路60號,高雄市市立兆湘國小(2018),AirBox,NA,2024-03-22,74DA38F20C6A,2.0,1.0,22.784,120.286,9.0,js02,15.0,17.0,10.0,100.0,23.87,2024-03-22T18:38:12Z
61,18:44:18,高雄市兆湘國小 高雄市岡山區介壽路60號,高雄市市立兆湘國小(2018),AirBox,NA,2024-03-22,74DA38F20C6A,2.0,1.0,22.784,120.286,9.0,js02,15.0,16.0,10.0,100.0,23.87,2024-03-22T18:44:18Z
62,18:50:28,高雄市兆湘國小 高雄市岡山區介壽路60號,高雄市市立兆湘國小(2018),AirBox,NA,2024-03-22,74DA38F20C6A,2.0,1.0,22.784,120.286,9.0,js02,17.0,19.0,10.0,100.0,23.75,2024-03-22T18:50:28Z
63,18:56:45,高雄市兆湘國小 高雄市岡山區介壽路60號,高雄市市立兆湘國小(2018),AirBox,NA,2024-03-22,74DA38F20C6A,2.0,1.0,22.784,120.286,9.0,js02,17.0,19.0,11.0,100.0,23.62,2024-03-22T18:56:45Z
64,19:02:53,高雄市兆湘國小 高雄市岡山區介壽路60號,高雄市市立兆湘國小(2018),AirBox,NA,2024-03-22,74DA38F20C6A,2.0,1.0,22.784,120.286,9.0,js02,19.0,21.0,13.0,100.0,23.5,2024-03-22T19:02:53Z
65,19:09:00,高雄市兆湘國小 高雄市岡山區介壽路60號,高雄市市立兆湘國小(2018),AirBox,NA,2024-03-22,74DA38F20C6A,2.0,1.0,22.784,120.286,9.0,js02,21.0,23.0,14.0,100.0,23.37,2024-03-22T19:09:00Z
66,19:15:07,高雄市兆湘國小 高雄市岡山區介壽路60號,高雄市市立兆湘國小(2018),AirBox,NA,2024-03-22,74DA38F20C6A,2.0,1.0,22.784,120.286,9.0,js02,26.0,29.0,18.0,100.0,23.25,2024-03-22T19:15:07Z
67,19:21:14,高雄市兆湘國小 高雄市岡山區介壽路60號,高雄市市立兆湘國小(2018),AirBox,NA,2024-03-22,74DA38F20C6A,2.0,1.0,22.784,120.286,9.0,js02,32.0,37.0,25.0,100.0,23.37,2024-03-22T19:21:14Z
68,19:27:21,高雄市兆湘國小 高雄市岡山區介壽路60號,高雄市市立兆湘國小(2018),AirBox,NA,2024-03-22,74DA38F20C6A,2.0,1.0,22.784,120.286,9.0,js02,32.0,36.0,23.0,100.0,23.37,2024-03-22T19:27:21Z
69,19:33:28,高雄市兆湘國小 高雄市岡山區介壽路60號,高雄市市立兆湘國小(2018),AirBox,NA,2024-03-22,74DA38F20C6A,2.0,1.0,22.784,120.286,9.0,js02,28.0,31.0,21.0,100.0,23.37,2024-03-22T19:33:28Z
70,19:39:36,高雄市兆湘國小 高雄市岡山區介壽路60號,高雄市市立兆湘國小(2018),AirBox,NA,2024-03-22,74DA38F20C6A,2.0,1.0,22.784,120.286,9.0,js02,32.0,37.0,24.0,100.0,23.37,2024-03-22T19:39:36Z
71,19:45:43,高雄市兆湘國小 高雄市岡山區介壽路60號,高雄市市立兆湘國小(2018),AirBox,NA,2024-03-22,74DA38F20C6A,2.0,1.0,22.784,120.286,9.0,js02,36.0,43.0,27.0,100.0,23.37,2024-03-22T19:45:43Z
72,19:51:52,高雄市兆湘國小 高雄市岡山區介壽路60號,高雄市市立兆湘國小(2018),AirBox,NA,2024-03-22,74DA38F20C6A,2.0,1.0,22.784,120.286,9.0,js02,32.0,37.0,22.0,100.0,23.25,2024-03-22T19:51:52Z
73,19:58:06,高雄市兆湘國小 高雄市岡山區介壽路60號,高雄市市立兆湘國小(2018),AirBox,NA,2024-03-22,74DA38F20C6A,2.0,1.0,22.784,120.286,9.0,js02,40.0,49.0,26.0,100.0,23.25,2024-03-22T19:58:06Z
74,20:04:24,高雄市兆湘國小 高雄市岡山區介壽路60號,高雄市市立兆湘國小(2018),AirBox,NA,2024-03-22,74DA38F20C6A,2.0,1.0,22.784,120.286,9.0,js02,59.0,72.0,39.0,100.0,23.0,2024-03-22T20:04:24Z
75,20:10:39,高雄市兆湘國小 高雄市岡山區介壽路60號,高雄市市立兆湘國小(2018),AirBox,NA,2024-03-22,74DA38F20C6A,2.0,1.0,22.784,120.286,9.0,js02,52.0,65.0,34.0,100.0,23.0,2024-03-22T20:10:39Z
76,20:16:55,高雄市兆湘國小 高雄市岡山區介壽路60號,高雄市市立兆湘國小(2018),AirBox,NA,2024-03-22,74DA38F20C6A,2.0,1.0,22.784,120.286,9.0,js02,43.0,54.0,28.0,100.0,23.25,2024-03-22T20:16:55Z
77,20:23:07,高雄市兆湘國小 高雄市岡山區介壽路60號,高雄市市立兆湘國小(2018),AirBox,NA,2024-03-22,74DA38F20C6A,2.0,1.0,22.784,120.286,9.0,js02,31.0,35.0,20.0,100.0,23.5,2024-03-22T20:23:07Z
78,20:29:17,高雄市兆湘國小 高雄市岡山區介壽路60號,高雄市市立兆湘國小(2018),AirBox,NA,2024-03-22,74DA38F20C6A,2.0,1.0,22.784,120.286,9.0,js02,29.0,33.0,19.0,100.0,23.37,2024-03-22T20:29:17Z
79,20:35:29,高雄市兆湘國小 高雄市岡山區介壽路60號,高雄市市立兆湘國小(2018),AirBox,NA,2024-03-22,74DA38F20C6A,2.0,1.0,22.784,120.286,9.0,js02,33.0,40.0,22.0,100.0,23.12,2024-03-22T20:35:29Z
80,20:41:41,高雄市兆湘國小 高雄市岡山區介壽路60號,高雄市市立兆湘國小(2018),AirBox,NA,2024-03-22,74DA38F20C6A,2.0,1.0,22.784,120.286,9.0,js02,34.0,41.0,23.0,100.0,23.12,2024-03-22T20:41:41Z
81,20:47:52,高雄市兆湘國小 高雄市岡山區介壽路60號,高雄市市立兆湘國小(2018),AirBox,NA,2024-03-22,74DA38F20C6A,2.0,1.0,22.784,120.286,9.0,js02,35.0,41.0,24.0,100.0,23.25,2024-03-22T20:47:52Z
82,20:54:03,高雄市兆湘國小 高雄市岡山區介壽路60號,高雄市市立兆湘國小(2018),AirBox,NA,2024-03-22,74DA38F20C6A,2.0,1.0,22.784,120.286,9.0,js02,40.0,49.0,29.0,100.0,23.12,2024-03-22T20:54:03Z
83,21:00:15,高雄市兆湘國小 高雄市岡山區介壽路60號,高雄市市立兆湘國小(2018),AirBox,NA,2024-03-22,74DA38F20C6A,2.0,1.0,22.784,120.286,9.0,js02,36.0,43.0,25.0,100.0,23.25,2024-03-22T21:00:15Z
84,21:06:25,高雄市兆湘國小 高雄市岡山區介壽路60號,高雄市市立兆湘國小(2018),AirBox,NA,2024-03-22,74DA38F20C6A,2.0,1.0,22.784,120.286,9.0,js02,35.0,42.0,25.0,100.0,23.37,2024-03-22T21:06:25Z
85,21:12:47,高雄市兆湘國小 高雄市岡山區介壽路60號,高雄市市立兆湘國小(2018),AirBox,NA,2024-03-22,74DA38F20C6A,2.0,1.0,22.784,120.286,9.0,js02,36.0,42.0,24.0,100.0,23.25,2024-03-22T21:12:47Z
86,21:18:59,高雄市兆湘國小 高雄市岡山區介壽路60號,高雄市市立兆湘國小(2018),AirBox,NA,2024-03-22,74DA38F20C6A,2.0,1.0,22.784,120.286,9.0,js02,34.0,40.0,23.0,100.0,23.12,2024-03-22T21:18:59Z
87,21:25:11,高雄市兆湘國小 高雄市岡山區介壽路60號,高雄市市立兆湘國小(2018),AirBox,NA,2024-03-22,74DA38F20C6A,2.0,1.0,22.784,120.286,9.0,js02,36.0,42.0,26.0,100.0,23.12,2024-03-22T21:25:11Z
88,21:31:20,高雄市兆湘國小 高雄市岡山區介壽路60號,高雄市市立兆湘國小(2018),AirBox,NA,2024-03-22,74DA38F20C6A,2.0,1.0,22.784,120.286,9.0,js02,31.0,36.0,23.0,100.0,23.25,2024-03-22T21:31:20Z
89,21:37:31,高雄市兆湘國小 高雄市岡山區介壽路60號,高雄市市立兆湘國小(2018),AirBox,NA,2024-03-22,74DA38F20C6A,2.0,1.0,22.784,120.286,9.0,js02,34.0,38.0,25.0,100.0,23.25,2024-03-22T21:37:31Z
90,21:43:41,高雄市兆湘國小 高雄市岡山區介壽路60號,高雄市市立兆湘國小(2018),AirBox,NA,2024-03-22,74DA38F20C6A,2.0,1.0,22.784,120.286,9.0,js02,32.0,37.0,24.0,100.0,23.37,2024-03-22T21:43:41Z
91,21:49:49,高雄市兆湘國小 高雄市岡山區介壽路60號,高雄市市立兆湘國小(2018),AirBox,NA,2024-03-22,74DA38F20C6A,2.0,1.0,22.784,120.286,9.0,js02,35.0,40.0,27.0,100.0,23.5,2024-03-22T21:49:49Z
92,21:55:58,高雄市兆湘國小 高雄市岡山區介壽路60號,高雄市市立兆湘國小(2018),AirBox,NA,2024-03-22,74DA38F20C6A,2.0,1.0,22.784,120.286,9.0,js02,31.0,35.0,23.0,100.0,23.5,2024-03-22T21:55:58Z
93,22:02:07,高雄市兆湘國小 高雄市岡山區介壽路60號,高雄市市立兆湘國小(2018),AirBox,NA,2024-03-22,74DA38F20C6A,2.0,1.0,22.784,120.286,9.0,js02,24.0,27.0,18.0,100.0,23.37,2024-03-22T22:02:07Z
94,22:08:17,高雄市兆湘國小 高雄市岡山區介壽路60號,高雄市市立兆湘國小(2018),AirBox,NA,2024-03-22,74DA38F20C6A,2.0,1.0,22.784,120.286,9.0,js02,23.0,25.0,15.0,100.0,23.25,2024-03-22T22:08:17Z
95,22:14:27,高雄市兆湘國小 高雄市岡山區介壽路60號,高雄市市立兆湘國小(2018),AirBox,NA,2024-03-22,74DA38F20C6A,2.0,1.0,22.784,120.286,9.0,js02,31.0,34.0,23.0,100.0,23.25,2024-03-22T22:14:27Z
96,22:20:35,高雄市兆湘國小 高雄市岡山區介壽路60號,高雄市市立兆湘國小(2018),AirBox,NA,2024-03-22,74DA38F20C6A,2.0,1.0,22.784,120.286,9.0,js02,32.0,36.0,24.0,100.0,23.25,2024-03-22T22:20:35Z
97,22:26:46,高雄市兆湘國小 高雄市岡山區介壽路60號,高雄市市立兆湘國小(2018),AirBox,NA,2024-03-22,74DA38F20C6A,2.0,1.0,22.784,120.286,9.0,js02,28.0,32.0,20.0,100.0,23.25,2024-03-22T22:26:46Z
98,22:32:54,高雄市兆湘國小 高雄市岡山區介壽路60號,高雄市市立兆湘國小(2018),AirBox,NA,2024-03-22,74DA38F20C6A,2.0,1.0,22.784,120.286,9.0,js02,32.0,37.0,25.0,100.0,23.25,2024-03-22T22:32:54Z
99,22:39:01,高雄市兆湘國小 高雄市岡山區介壽路60號,高雄市市立兆湘國小(2018),AirBox,NA,2024-03-22,74DA38F20C6A,2.0,1.0,22.784,120.286,9.0,js02,31.0,35.0,24.0,100.0,23.12,2024-03-22T22:39:01Z
100,22:45:11,高雄市兆湘國小 高雄市岡山區介壽路60號,高雄市市立兆湘國小(2018),AirBox,NA,2024-03-22,74DA38F20C6A,2.0,1.0,22.784,120.286,9.0,js02,37.0,43.0,30.0,100.0,23.0,2024-03-22T22:45:11Z
101,22:51:19,高雄市兆湘國小 高雄市岡山區介壽路60號,高雄市市立兆湘國小(2018),AirBox,NA,2024-03-22,74DA38F20C6A,2.0,1.0,22.784,120.286,9.0,js02,31.0,36.0,23.0,100.0,23.12,2024-03-22T22:51:19Z
102,22:57:29,高雄市兆湘國小 高雄市岡山區介壽路60號,高雄市市立兆湘國小(2018),AirBox,NA,2024-03-22,74DA38F20C6A,2.0,1.0,22.784,120.286,9.0,js02,34.0,38.0,26.0,100.0,23.25,2024-03-22T22:57:29Z
103,23:03:36,高雄市兆湘國小 高雄市岡山區介壽路60號,高雄市市立兆湘國小(2018),AirBox,NA,2024-03-22,74DA38F20C6A,2.0,1.0,22.784,120.286,9.0,js02,32.0,37.0,23.0,100.0,23.37,2024-03-22T23:03:36Z
104,23:09:45,高雄市兆湘國小 高雄市岡山區介壽路60號,高雄市市立兆湘國小(2018),AirBox,NA,2024-03-22,74DA38F20C6A,2.0,1.0,22.784,120.286,9.0,js02,24.0,26.0,16.0,100.0,23.62,2024-03-22T23:09:45Z
105,23:15:53,高雄市兆湘國小 高雄市岡山區介壽路60號,高雄市市立兆湘國小(2018),AirBox,NA,2024-03-22,74DA38F20C6A,2.0,1.0,22.784,120.286,9.0,js02,20.0,22.0,12.0,100.0,23.87,2024-03-22T23:15:53Z
106,23:22:00,高雄市兆湘國小 高雄市岡山區介壽路60號,高雄市市立兆湘國小(2018),AirBox,NA,2024-03-22,74DA38F20C6A,2.0,1.0,22.784,120.286,9.0,js02,18.0,20.0,11.0,100.0,23.87,2024-03-22T23:22:00Z
107,23:28:08,高雄市兆湘國小 高雄市岡山區介壽路60號,高雄市市立兆湘國小(2018),AirBox,NA,2024-03-22,74DA38F20C6A,2.0,1.0,22.784,120.286,9.0,js02,18.0,20.0,11.0,100.0,24.25,2024-03-22T23:28:08Z
108,23:34:15,高雄市兆湘國小 高雄市岡山區介壽路60號,高雄市市立兆湘國小(2018),AirBox,NA,2024-03-22,74DA38F20C6A,2.0,1.0,22.784,120.286,9.0,js02,14.0,16.0,8.0,100.0,24.62,2024-03-22T23:34:15Z
109,23:40:46,高雄市兆湘國小 高雄市岡山區介壽路60號,高雄市市立兆湘國小(2018),AirBox,NA,2024-03-22,74DA38F20C6A,2.0,1.0,22.784,120.286,9.0,js02,10.0,12.0,6.0,100.0,24.75,2024-03-22T23:40:46Z
110,23:46:53,高雄市兆湘國小 高雄市岡山區介壽路60號,高雄市市立兆湘國小(2018),AirBox,NA,2024-03-22,74DA38F20C6A,2.0,1.0,22.784,120.286,9.0,js02,11.0,12.0,7.0,100.0,24.75,2024-03-22T23:46:53Z
111,23:53:00,高雄市兆湘國小 高雄市岡山區介壽路60號,高雄市市立兆湘國小(2018),AirBox,NA,2024-03-22,74DA38F20C6A,2.0,1.0,22.784,120.286,9.0,js02,10.0,12.0,6.0,100.0,25.12,2024-03-22T23:53:00Z
112,23:59:07,高雄市兆湘國小 高雄市岡山區介壽路60號,高雄市市立兆湘國小(2018),AirBox,NA,2024-03-22,74DA38F20C6A,2.0,1.0,22.784,120.286,9.0,js02,10.0,11.0,6.0,100.0,25.5,2024-03-22T23:59:07Z
113,00:05:14,高雄市兆湘國小 高雄市岡山區介壽路60號,高雄市市立兆湘國小(2018),AirBox,NA,2024-03-23,74DA38F20C6A,2.0,1.0,22.784,120.286,9.0,js02,10.0,12.0,6.0,100.0,25.87,2024-03-23T00:05:14Z
114,00:11:20,高雄市兆湘國小 高雄市岡山區介壽路60號,高雄市市立兆湘國小(2018),AirBox,NA,2024-03-23,74DA38F20C6A,2.0,1.0,22.784,120.286,9.0,js02,9.0,10.0,6.0,100.0,25.87,2024-03-23T00:11:20Z
115,00:17:30,高雄市兆湘國小 高雄市岡山區介壽路60號,高雄市市立兆湘國小(2018),AirBox,NA,2024-03-23,74DA38F20C6A,2.0,1.0,22.784,120.286,9.0,js02,10.0,11.0,6.0,100.0,25.87,2024-03-23T00:17:30Z
116,00:23:36,高雄市兆湘國小 高雄市岡山區介壽路60號,高雄市市立兆湘國小(2018),AirBox,NA,2024-03-23,74DA38F20C6A,2.0,1.0,22.784,120.286,9.0,js02,10.0,12.0,7.0,100.0,26.37,2024-03-23T00:23:36Z
117,00:29:43,高雄市兆湘國小 高雄市岡山區介壽路60號,高雄市市立兆湘國小(2018),AirBox,NA,2024-03-23,74DA38F20C6A,2.0,1.0,22.784,120.286,9.0,js02,10.0,12.0,6.0,100.0,26.5,2024-03-23T00:29:43Z
118,00:35:49,高雄市兆湘國小 高雄市岡山區介壽路60號,高雄市市立兆湘國小(2018),AirBox,NA,2024-03-23,74DA38F20C6A,2.0,1.0,22.784,120.286,9.0,js02,9.0,10.0,5.0,100.0,26.62,2024-03-23T00:35:49Z
119,00:41:56,高雄市兆湘國小 高雄市岡山區介壽路60號,高雄市市立兆湘國小(2018),AirBox,NA,2024-03-23,74DA38F20C6A,2.0,1.0,22.784,120.286,9.0,js02,9.0,10.0,6.0,100.0,26.87,2024-03-23T00:41:56Z
120,00:48:01,高雄市兆湘國小 高雄市岡山區介壽路60號,高雄市市立兆湘國小(2018),AirBox,NA,2024-03-23,74DA38F20C6A,2.0,1.0,22.784,120.286,9.0,js02,8.0,10.0,5.0,100.0,26.87,2024-03-23T00:48:01Z
121,00:54:08,高雄市兆湘國小 高雄市岡山區介壽路60號,高雄市市立兆湘國小(2018),AirBox,NA,2024-03-23,74DA38F20C6A,2.0,1.0,22.784,120.286,9.0,js02,9.0,10.0,5.0,100.0,27.12,2024-03-23T00:54:08Z
122,01:00:14,高雄市兆湘國小 高雄市岡山區介壽路60號,高雄市市立兆湘國小(2018),AirBox,NA,2024-03-23,74DA38F20C6A,2.0,1.0,22.784,120.286,9.0,js02,8.0,9.0,5.0,100.0,27.37,2024-03-23T01:00:14Z
123,01:06:20,高雄市兆湘國小 高雄市岡山區介壽路60號,高雄市市立兆湘國小(2018),AirBox,NA,2024-03-23,74DA38F20C6A,2.0,1.0,22.784,120.286,9.0,js02,8.0,9.0,5.0,100.0,27.37,2024-03-23T01:06:20Z
124,01:12:25,高雄市兆湘國小 高雄市岡山區介壽路60號,高雄市市立兆湘國小(2018),AirBox,NA,2024-03-23,74DA38F20C6A,2.0,1.0,22.784,120.286,9.0,js02,9.0,10.0,6.0,100.0,28.0,2024-03-23T01:12:25Z
125,01:18:31,高雄市兆湘國小 高雄市岡山區介壽路60號,高雄市市立兆湘國小(2018),AirBox,NA,2024-03-23,74DA38F20C6A,2.0,1.0,22.784,120.286,9.0,js02,8.0,9.0,5.0,100.0,28.25,2024-03-23T01:18:31Z
126,01:24:37,高雄市兆湘國小 高雄市岡山區介壽路60號,高雄市市立兆湘國小(2018),AirBox,NA,2024-03-23,74DA38F20C6A,2.0,1.0,22.784,120.286,9.0,js02,8.0,9.0,5.0,100.0,28.25,2024-03-23T01:24:37Z
127,01:30:44,高雄市兆湘國小 高雄市岡山區介壽路60號,高雄市市立兆湘國小(2018),AirBox,NA,2024-03-23,74DA38F20C6A,2.0,1.0,22.784,120.286,9.0,js02,8.0,9.0,5.0,100.0,28.25,2024-03-23T01:30:44Z
128,01:36:49,高雄市兆湘國小 高雄市岡山區介壽路60號,高雄市市立兆湘國小(2018),AirBox,NA,2024-03-23,74DA38F20C6A,2.0,1.0,22.784,120.286,9.0,js02,9.0,10.0,6.0,100.0,28.61,2024-03-23T01:36:49Z
129,01:42:55,高雄市兆湘國小 高雄市岡山區介壽路60號,高雄市市立兆湘國小(2018),AirBox,NA,2024-03-23,74DA38F20C6A,2.0,1.0,22.784,120.286,9.0,js02,10.0,11.0,6.0,100.0,29.11,2024-03-23T01:42:55Z
130,01:49:00,高雄市兆湘國小 高雄市岡山區介壽路60號,高雄市市立兆湘國小(2018),AirBox,NA,2024-03-23,74DA38F20C6A,2.0,1.0,22.784,120.286,9.0,js02,11.0,12.0,7.0,100.0,28.86,2024-03-23T01:49:00Z
131,01:55:08,高雄市兆湘國小 高雄市岡山區介壽路60號,高雄市市立兆湘國小(2018),AirBox,NA,2024-03-23,74DA38F20C6A,2.0,1.0,22.784,120.286,9.0,js02,11.0,12.0,7.0,100.0,28.86,2024-03-23T01:55:08Z
132,02:01:13,高雄市兆湘國小 高雄市岡山區介壽路60號,高雄市市立兆湘國小(2018),AirBox,NA,2024-03-23,74DA38F20C6A,2.0,1.0,22.784,120.286,9.0,js02,9.0,10.0,6.0,100.0,29.0,2024-03-23T02:01:13Z
133,02:07:19,高雄市兆湘國小 高雄市岡山區介壽路60號,高雄市市立兆湘國小(2018),AirBox,NA,2024-03-23,74DA38F20C6A,2.0,1.0,22.784,120.286,9.0,js02,10.0,11.0,6.0,100.0,28.86,2024-03-23T02:07:19Z
134,02:13:24,高雄市兆湘國小 高雄市岡山區介壽路60號,高雄市市立兆湘國小(2018),AirBox,NA,2024-03-23,74DA38F20C6A,2.0,1.0,22.784,120.286,9.0,js02,10.0,11.0,6.0,100.0,29.5,2024-03-23T02:13:24Z
135,02:19:29,高雄市兆湘國小 高雄市岡山區介壽路60號,高雄市市立兆湘國小(2018),AirBox,NA,2024-03-23,74DA38F20C6A,2.0,1.0,22.784,120.286,9.0,js02,10.0,12.0,7.0,100.0,29.5,2024-03-23T02:19:29Z
136,02:25:36,高雄市兆湘國小 高雄市岡山區介壽路60號,高雄市市立兆湘國小(2018),AirBox,NA,2024-03-23,74DA38F20C6A,2.0,1.0,22.784,120.286,9.0,js02,10.0,12.0,6.0,100.0,29.11,2024-03-23T02:25:36Z
137,02:31:42,高雄市兆湘國小 高雄市岡山區介壽路60號,高雄市市立兆湘國小(2018),AirBox,NA,2024-03-23,74DA38F20C6A,2.0,1.0,22.784,120.286,9.0,js02,10.0,12.0,6.0,100.0,29.61,2024-03-23T02:31:42Z
138,02:37:49,高雄市兆湘國小 高雄市岡山區介壽路60號,高雄市市立兆湘國小(2018),AirBox,NA,2024-03-23,74DA38F20C6A,2.0,1.0,22.784,120.286,9.0,js02,12.0,13.0,7.0,100.0,30.0,2024-03-23T02:37:49Z
139,02:43:54,高雄市兆湘國小 高雄市岡山區介壽路60號,高雄市市立兆湘國小(2018),AirBox,NA,2024-03-23,74DA38F20C6A,2.0,1.0,22.784,120.286,9.0,js02,10.0,11.0,6.0,100.0,29.86,2024-03-23T02:43:54Z
140,02:50:01,高雄市兆湘國小 高雄市岡山區介壽路60號,高雄市市立兆湘國小(2018),AirBox,NA,2024-03-23,74DA38F20C6A,2.0,1.0,22.784,120.286,9.0,js02,11.0,13.0,7.0,100.0,30.0,2024-03-23T02:50:01Z
141,02:56:07,高雄市兆湘國小 高雄市岡山區介壽路60號,高雄市市立兆湘國小(2018),AirBox,NA,2024-03-23,74DA38F20C6A,2.0,1.0,22.784,120.286,9.0,js02,10.0,11.0,6.0,100.0,30.36,2024-03-23T02:56:07Z
142,03:02:13,高雄市兆湘國小 高雄市岡山區介壽路60號,高雄市市立兆湘國小(2018),AirBox,NA,2024-03-23,74DA38F20C6A,2.0,1.0,22.784,120.286,9.0,js02,9.0,10.0,6.0,100.0,30.36,2024-03-23T03:02:13Z
143,03:08:19,高雄市兆湘國小 高雄市岡山區介壽路60號,高雄市市立兆湘國小(2018),AirBox,NA,2024-03-23,74DA38F20C6A,2.0,1.0,22.784,120.286,9.0,js02,9.0,10.0,6.0,100.0,30.25,2024-03-23T03:08:19Z
144,03:14:25,高雄市兆湘國小 高雄市岡山區介壽路60號,高雄市市立兆湘國小(2018),AirBox,NA,2024-03-23,74DA38F20C6A,2.0,1.0,22.784,120.286,9.0,js02,7.0,8.0,4.0,100.0,30.0,2024-03-23T03:14:25Z
145,03:20:30,高雄市兆湘國小 高雄市岡山區介壽路60號,高雄市市立兆湘國小(2018),AirBox,NA,2024-03-23,74DA38F20C6A,2.0,1.0,22.784,120.286,9.0,js02,8.0,10.0,4.0,100.0,30.11,2024-03-23T03:20:30Z
146,03:26:37,高雄市兆湘國小 高雄市岡山區介壽路60號,高雄市市立兆湘國小(2018),AirBox,NA,2024-03-23,74DA38F20C6A,2.0,1.0,22.784,120.286,9.0,js02,7.0,8.0,4.0,100.0,29.61,2024-03-23T03:26:37Z